Location: Newark
(44.6028°N, 124.0883°W)
Time: 18:06:53
(UTC+00:00)

A-11 Canister half - Visible Passes

Search period start: 23 October 2019 00:00
Search period end: 02 November 2019 00:00
Orbit: 1527 x 1682 km, 47.3° (Epoch: 22 October)

Date Brightness Start Highest point End Pass type
(mag) Time Alt. Az. Time Alt. Az. Time Alt. Az.
23 Oct 9.4 02:24:45 10° SSW 02:33:25 41° SE 02:39:41 18° E visible
23 Oct 8.7 04:28:19 10° WSW 04:37:47 88° SSE 04:37:59 86° ESE visible
23 Oct 10.6 06:33:48 10° W 06:36:18 21° W 06:36:18 21° W visible
24 Oct 9.5 02:03:16 10° SSW 02:11:51 39° SE 02:19:21 13° ENE visible
24 Oct 8.8 04:06:41 10° WSW 04:16:10 86° SSE 04:17:39 68° E visible
24 Oct 10.3 06:12:08 10° W 06:15:57 28° W 06:15:57 28° W visible
25 Oct 9.6 01:41:47 10° SSW 01:50:17 37° SE 01:58:36 10° ENE visible
25 Oct 8.8 03:45:03 10° WSW 03:54:33 84° SSE 03:57:16 53° ENE visible
25 Oct 10.0 05:50:29 10° W 05:55:34 37° WNW 05:55:34 37° WNW visible
26 Oct 8.9 03:23:24 10° WSW 03:32:56 82° SSE 03:36:50 41° ENE visible
26 Oct 9.6 05:28:50 10° W 05:35:08 47° WNW 05:35:08 47° WNW visible
27 Oct 8.9 03:01:46 10° WSW 03:11:18 80° SSE 03:16:22 32° ENE visible
27 Oct 9.3 05:07:09 10° W 05:14:39 60° WNW 05:14:39 60° WNW visible
27 Oct 11.1 07:12:34 10° WNW 07:12:57 12° WNW 07:12:57 12° WNW visible
28 Oct 9.0 02:40:08 10° WSW 02:49:42 78° SSE 02:55:52 25° ENE visible
28 Oct 9.0 04:45:29 10° W 04:54:10 72° NW 04:54:10 72° NW visible
28 Oct 10.9 06:50:56 10° WNW 06:52:28 16° WNW 06:52:28 16° WNW visible
29 Oct 9.0 02:18:31 10° WSW 02:28:05 76° SSE 02:35:22 19° ENE visible
29 Oct 8.8 04:23:49 10° W 04:33:18 76° N 04:33:39 75° NNE visible
29 Oct 10.6 06:29:17 10° WNW 06:31:56 22° WNW 06:31:56 22° WNW visible
30 Oct 9.1 01:56:53 10° SW 02:06:28 74° SSE 02:14:50 14° ENE visible
30 Oct 8.9 04:02:08 10° W 04:11:40 76° N 04:13:07 65° NE visible
30 Oct 10.3 06:07:38 10° WNW 06:11:24 28° WNW 06:11:24 28° WNW visible
31 Oct 9.1 01:35:16 10° SW 01:44:51 72° SSE 01:54:10 10° ENE visible
31 Oct 8.9 03:40:28 10° W 03:50:01 77° N 03:52:34 53° ENE visible
31 Oct 10.0 05:46:00 10° WNW 05:50:52 36° WNW 05:50:52 36° WNW visible
01 Nov 9.0 03:18:48 10° W 03:28:22 77° N 03:32:02 43° ENE visible
01 Nov 9.7 05:24:21 10° WNW 05:30:19 45° WNW 05:30:19 45° WNW visible
